^^
Datos históricos de la estación: Murcia-Puente Tocinos
Diario Informe para Junio 19, 2019 Unidades:  Inglés    Métrico   Ambas
Diario Semanal Mensual Anual Configurable
  Máximo: Mínimo: Media:
Temperatura: 92.1 °F 67.3 °F 79.5 °F
Punto de rocio: 64.6 °F 47.1 °F 56.8 °F
Humedad: 85% 23% 52%
Velocidad viento: 12.3mph 0mph 5.3mph
Racha viento: 20.1mph - -
Viento- - SSE
Presión: 29.9 in 29.8 in -
Precipitación: 0 in    
Historical Graphs
 
 
Tabla de datos para Junio 19, 2019
Hora Temperatura Punto de rocio Presión Viento Velocidad viento Racha viento Humedad Intensidad lluvia(por hora) Nubes
00:04 70.5 °F 63.3 °F 29.9 in NNE 5.2 mph 5.8 mph 78% 0 in CLR
00:09 70.5 °F 63.7 °F 29.9 in NNE 4 mph 8.1 mph 79% 0 in CLR
00:14 70.3 °F 63.5 °F 29.9 in NNE 4 mph 6.2 mph 79% 0 in CLR
00:19 70.3 °F 63.5 °F 29.9 in NNE 4.3 mph 5.8 mph 79% 0 in CLR
00:24 70.2 °F 63.7 °F 29.9 in NE 4.3 mph 5.2 mph 80% 0 in CLR
00:29 70.2 °F 64 °F 29.9 in NE 4.3 mph 6.9 mph 81% 0 in CLR
00:34 70 °F 63.9 °F 29.9 in NE 4.3 mph 6.9 mph 81% 0 in CLR
00:39 70 °F 63.9 °F 29.9 in NNE 5.2 mph 6.2 mph 81% 0 in CLR
00:44 69.8 °F 64 °F 29.9 in NE 5.2 mph 8.1 mph 82% 0 in CLR
00:49 69.6 °F 63.9 °F 29.9 in North 4 mph 6.2 mph 82% 0 in CLR
00:54 69.6 °F 63.9 °F 29.9 in NE 4 mph 5.8 mph 82% 0 in CLR
00:59 69.6 °F 63.9 °F 29.9 in NNE 3.6 mph 6.2 mph 82% 0 in CLR
01:04 69.6 °F 63.9 °F 29.9 in North 3.6 mph 5.8 mph 82% 0 in CLR
01:09 69.4 °F 64 °F 29.9 in NE 3.6 mph 4.6 mph 83% 0 in CLR
01:14 69.3 °F 63.9 °F 29.9 in NNE 3.6 mph 4.7 mph 83% 0 in CLR
01:19 69.3 °F 63.9 °F 29.9 in NNE 3.1 mph 4.6 mph 83% 0 in CLR
01:24 69.1 °F 64 °F 29.9 in NNE 3.1 mph 4.6 mph 84% 0 in CLR
01:29 69.1 °F 64 °F 29.9 in NE 2 mph 3.1 mph 84% 0 in CLR
01:34 69.1 °F 64 °F 29.9 in NE 2 mph   84% 0 in CLR
01:39 69.1 °F 64 °F 29.9 in NNE 1.4 mph 2.3 mph 84% 0 in CLR
01:44 69.1 °F 64 °F 29.9 in NNE 1.4 mph   84% 0 in CLR
01:49 69.1 °F 64 °F 29.9 in Calm   3.1 mph 84% 0 in CLR
01:54 69.1 °F 64 °F 29.9 in Calm   2.4 mph 84% 0 in CLR
01:59 69.1 °F 64 °F 29.9 in NW 1.8 mph 3.5 mph 84% 0 in CLR
02:04 69.1 °F 64 °F 29.9 in NW 1.8 mph 3.5 mph 84% 0 in CLR
02:09 69.1 °F 64 °F 29.9 in NW 1.8 mph 2 mph 84% 0 in CLR
02:14 69.1 °F 64 °F 29.9 in NW 1.8 mph 2.3 mph 84% 0 in CLR
02:19 69.1 °F 64 °F 29.9 in Calm   1.4 mph 84% 0 in CLR
02:24 69.1 °F 64 °F 29.9 in Calm     84% 0 in CLR
02:29 69.1 °F 64 °F 29.9 in Calm     84% 0 in CLR
02:34 69.1 °F 64 °F 29.9 in Calm     84% 0 in CLR
02:39 69.1 °F 64 °F 29.9 in Calm     84% 0 in CLR
02:44 68.9 °F 64.2 °F 29.9 in Calm     85% 0 in CLR
02:49 68.9 °F 63.9 °F 29.9 in Calm   3.5 mph 84% 0 in CLR
02:54 68.9 °F 63.5 °F 29.9 in Calm   4.3 mph 83% 0 in CLR
02:59 68.7 °F 63 °F 29.9 in SSW 2.9 mph 5.8 mph 82% 0 in CLR
03:04 68.9 °F 61.9 °F 29.9 in WSW 2.9 mph 6.9 mph 78% 0 in CLR
03:09 69.1 °F 61.5 °F 29.9 in SSW 4.3 mph 6.9 mph 77% 0 in CLR
03:14 69.3 °F 61.7 °F 29.9 in SSW 4.3 mph 6.4 mph 77% 0 in CLR
03:19 69.3 °F 61.7 °F 29.9 in SW 4.3 mph 4.6 mph 77% 0 in CLR
03:24 69.3 °F 61.7 °F 29.9 in SSW 4.3 mph 5.8 mph 77% 0 in CLR
03:29 69.3 °F 62.1 °F 29.9 in WSW 3.6 mph 5.2 mph 78% 0 in CLR
03:34 69.1 °F 62.2 °F 29.9 in WSW 3.6 mph 4.6 mph 79% 0 in CLR
03:39 69.1 °F 62.2 °F 29.9 in SSE 3.6 mph 6.9 mph 79% 0 in CLR
03:44 68.9 °F 62.4 °F 29.9 in SW 3.6 mph 4.6 mph 80% 0 in CLR
03:49 68.7 °F 62.2 °F 29.9 in WSW 4 mph 4.7 mph 80% 0 in CLR
03:54 68.7 °F 62.2 °F 29.9 in WSW 4 mph 5.8 mph 80% 0 in CLR
03:59 68.7 °F 62.2 °F 29.9 in WSW 4 mph 5.2 mph 80% 0 in CLR
04:04 68.7 °F 62.2 °F 29.9 in WSW 4 mph 8.1 mph 80% 0 in CLR
04:09 68.7 °F 62.8 °F 29.9 in WSW 4 mph 6.9 mph 81% 0 in CLR
04:14 68.7 °F 62.8 °F 29.9 in SW 4 mph 10.4 mph 81% 0 in CLR
04:19 68.5 °F 62.8 °F 29.9 in SW 4.3 mph 10 mph 82% 0 in CLR
04:24 68.4 °F 62.6 °F 29.9 in WSW 4.3 mph 6.9 mph 82% 0 in CLR
04:29 68.4 °F 63 °F 29.9 in WSW 5.4 mph 8.1 mph 83% 0 in CLR
04:34 68.2 °F 62.8 °F 29.9 in West 5.4 mph 9.2 mph 83% 0 in CLR
04:39 68.2 °F 62.8 °F 29.9 in WSW 5.9 mph 5.8 mph 83% 0 in CLR
04:44 68.2 °F 62.8 °F 29.9 in SW 5.9 mph 5.8 mph 83% 0 in CLR
04:49 68.4 °F 63 °F 29.9 in WNW 4.3 mph 5.8 mph 83% 0 in CLR
04:54 68.2 °F 62.8 °F 29.9 in SW 4.3 mph 6.9 mph 83% 0 in CLR
04:59 68.2 °F 62.8 °F 29.9 in SW 4.3 mph 4.7 mph 83% 0 in CLR
05:04 68.2 °F 62.8 °F 29.9 in SW 4.3 mph 6.2 mph 83% 0 in CLR
05:09 68.2 °F 62.4 °F 29.9 in SSW 3.6 mph 6.9 mph 82% 0 in CLR
05:14 68.2 °F 62.8 °F 29.9 in SW 3.6 mph 3.5 mph 83% 0 in CLR
05:19 68 °F 62.2 °F 29.9 in SW 3.1 mph 7.4 mph 82% 0 in CLR
05:24 67.8 °F 62.1 °F 29.9 in SSW 3.1 mph 6.9 mph 82% 0 in CLR
05:29 67.8 °F 61.9 °F 29.9 in SW 5.2 mph 6.4 mph 81% 0 in CLR
05:34 67.8 °F 61.9 °F 29.9 in South 5.2 mph 5.2 mph 81% 0 in CLR
05:39 67.8 °F 61.3 °F 29.9 in South 4.3 mph 6.4 mph 80% 0 in CLR
05:44 67.8 °F 61.9 °F 29.9 in SSW 4.3 mph 6.9 mph 81% 0 in CLR
05:49 67.8 °F 62.1 °F 29.9 in SSW 5.2 mph 6.9 mph 82% 0 in CLR
05:54 67.8 °F 62.1 °F 29.9 in SSW 5.2 mph 5.8 mph 82% 0 in CLR
05:59 67.6 °F 61.9 °F 29.9 in SSW 4.3 mph 5.8 mph 82% 0 in CLR
06:04 67.6 °F 61.9 °F 29.9 in SW 4.3 mph 8.1 mph 82% 0 in CLR
06:09 67.5 °F 61.9 °F 29.9 in WSW 5.2 mph 6.9 mph 82% 0 in CLR
06:14 67.5 °F 61.9 °F 29.9 in SW 5.2 mph 5.8 mph 82% 0 in CLR
06:19 67.5 °F 61.9 °F 29.9 in WSW 4.7 mph 8.1 mph 82% 0 in CLR
06:24 67.5 °F 61.9 °F 29.9 in SW 4.7 mph 5.8 mph 82% 0 in CLR
06:29 67.5 °F 61.9 °F 29.9 in SSW 4.3 mph 6.9 mph 82% 0 in CLR
06:34 67.5 °F 61.3 °F 29.9 in SW 4.3 mph 5.8 mph 81% 0 in CLR
06:39 67.3 °F 61 °F 29.9 in SW 4.3 mph 8.1 mph 80% 0 in CLR
06:44 67.3 °F 61 °F 29.9 in WSW 4.3 mph 6.9 mph 80% 0 in CLR
06:49 67.5 °F 60.6 °F 29.9 in WSW 5.2 mph 8.1 mph 79% 0 in CLR
06:54 67.5 °F 60.6 °F 29.9 in West 5.2 mph 7.4 mph 79% 0 in CLR
06:59 67.5 °F 60.6 °F 29.9 in SW 4 mph 5.4 mph 79% 0 in CLR
07:04 67.5 °F 60.1 °F 29.9 in WNW 4 mph 5.8 mph 77% 0 in CLR
07:09 67.6 °F 60.3 °F 29.9 in WSW 4.3 mph 6.9 mph 77% 0 in CLR
07:14 67.6 °F 60.3 °F 29.9 in SW 4.3 mph 5.8 mph 77% 0 in CLR
07:19 67.8 °F 60.3 °F 29.9 in SW 4 mph 2.4 mph 77% 0 in CLR
07:24 67.8 °F 60.3 °F 29.9 in WSW 4 mph 6.9 mph 77% 0 in CLR
07:29 68.2 °F 60.3 °F 29.9 in SW 3.1 mph 5.2 mph 76% 0 in CLR
07:34 68.2 °F 60.3 °F 29.9 in WSW 3.1 mph 9.2 mph 76% 0 in CLR
07:39 68.4 °F 60.1 °F 29.9 in South 4.7 mph 5.8 mph 75% 0 in CLR
07:44 68.5 °F 60.3 °F 29.9 in SSW 4.7 mph 5.9 mph 75% 0 in CLR
07:49 68.7 °F 60.1 °F 29.9 in SSW 4.3 mph 8.1 mph 74% 0 in CLR
07:54 68.9 °F 59.9 °F 29.9 in SSW 4.3 mph 7.4 mph 73% 0 in CLR
07:59 68.9 °F 59.9 °F 29.9 in SW 5.4 mph 8.1 mph 73% 0 in CLR
08:04 69.1 °F 59.7 °F 29.9 in WSW 5.4 mph 5.8 mph 72% 0 in CLR
08:09 69.3 °F 59.7 °F 29.9 in WSW 4.3 mph 6.9 mph 72% 0 in CLR
08:14 69.6 °F 60.3 °F 29.9 in West 4.3 mph 6.9 mph 72% 0 in CLR
08:19 69.6 °F 59.7 °F 29.9 in WSW 4.3 mph 8.1 mph 71% 0 in CLR
08:24 70 °F 59.7 °F 29.9 in SW 4.3 mph 5.9 mph 70% 0 in CLR
08:29 70.3 °F 59.7 °F 29.9 in SSW 4.3 mph 4.6 mph 69% 0 in CLR
08:34 70.9 °F 59.7 °F 29.9 in WSW 4.3 mph 6.9 mph 68% 0 in CLR
08:39 71.1 °F 59.5 °F 29.9 in West 4 mph 4.6 mph 67% 0 in CLR
08:44 71.4 °F 59 °F 29.9 in WSW 4 mph 6.9 mph 65% 0 in CLR
08:49 72 °F 58.6 °F 29.9 in WSW 4.7 mph 6.9 mph 63% 0 in CLR
08:54 72.5 °F 58.6 °F 29.9 in WSW 4.7 mph 6.9 mph 62% 0 in CLR
08:59 73 °F 58.8 °F 29.9 in SSW 4.3 mph 4.6 mph 61% 0 in CLR
09:04 73.8 °F 58.5 °F 29.9 in South 4.3 mph 4.6 mph 59% 0 in CLR
09:09 74.1 °F 58.5 °F 29.9 in SSW 3.6 mph 8.1 mph 58% 0 in CLR
09:14 74.7 °F 57.4 °F 29.9 in SW 3.6 mph 6.9 mph 55% 0 in CLR
09:19 75.2 °F 57.9 °F 29.9 in SSW 5.2 mph 5.2 mph 55% 0 in CLR
09:24 75.7 °F 56.8 °F 29.9 in SSW 5.2 mph 6.9 mph 52% 0 in CLR
09:29 76.3 °F 57.9 °F 29.9 in SW 5.2 mph 6.9 mph 53% 0 in CLR
09:34 76.5 °F 56.5 °F 29.9 in SW 5.2 mph 9.2 mph 50% 0 in CLR
09:39 76.8 °F 57.4 °F 29.9 in SSW 5.4 mph 6.9 mph 51% 0 in CLR
09:44 77.2 °F 56.5 °F 29.9 in West 5.4 mph 5.8 mph 49% 0 in CLR
09:49 77.5 °F 56.3 °F 29.9 in South 4 mph 6.9 mph 48% 0 in CLR
09:54 77.7 °F 54.7 °F 29.9 in SW 4 mph 8.1 mph 45% 0 in CLR
09:59 77.9 °F 54.9 °F 29.9 in WSW 4.7 mph 5.8 mph 45% 0 in CLR
10:04 78.3 °F 55.2 °F 29.9 in SW 4.7 mph 4.6 mph 45% 0 in CLR
10:09 78.4 °F 55.2 °F 29.9 in SSW 4 mph 6.9 mph 45% 0 in CLR
10:14 78.6 °F 55.6 °F 29.9 in SW 4 mph 6.9 mph 45% 0 in CLR
10:19 78.8 °F 55 °F 29.9 in WSW 5.2 mph 8.1 mph 44% 0 in CLR
10:24 79.2 °F 55.4 °F 29.9 in WSW 5.2 mph 10.4 mph 44% 0 in CLR
10:29 79.7 °F 55.9 °F 29.9 in SSW 4.3 mph 8.1 mph 44% 0 in CLR
10:34 80.2 °F 55 °F 29.9 in SW 4.3 mph 11.5 mph 42% 0 in CLR
10:39 80.4 °F 55.2 °F 29.9 in WSW 5.9 mph 6.9 mph 42% 0 in CLR
10:44 81 °F 54.3 °F 29.9 in WSW 5.9 mph 9.2 mph 40% 0 in CLR
10:49 81.1 °F 53.8 °F 29.9 in West 5.2 mph 6.9 mph 39% 0 in CLR
10:54 81.7 °F 54.3 °F 29.9 in SW 5.2 mph 5.8 mph 39% 0 in CLR
10:59 82 °F 54.7 °F 29.9 in SW 4.7 mph 4.7 mph 39% 0 in CLR
11:04 82.6 °F 54.3 °F 29.9 in WSW 4.7 mph 9.2 mph 38% 0 in CLR
11:09 82.8 °F 54.7 °F 29.9 in South 4.7 mph 5.8 mph 38% 0 in CLR
11:14 83.1 °F 54.1 °F 29.9 in WNW 4.7 mph 6.9 mph 37% 0 in CLR
11:19 83.7 °F 54 °F 29.9 in WNW 4.3 mph 6.9 mph 36% 0 in CLR
11:24 84 °F 54.1 °F 29.9 in ESE 4.3 mph 8.1 mph 36% 0 in CLR
11:29 84.4 °F 53.8 °F 29.9 in WNW 4 mph 4.7 mph 35% 0 in CLR
11:34 84.6 °F 54 °F 29.9 in SW 4 mph 3.5 mph 35% 0 in CLR
11:39 84.9 °F 53.4 °F 29.9 in SW 3.6 mph 9.7 mph 34% 0 in CLR
11:44 84.7 °F 53.2 °F 29.9 in WSW 3.6 mph 3.5 mph 34% 0 in CLR
11:49 85.3 °F 53.8 °F 29.9 in NNE 3.6 mph 4.6 mph 34% 0 in CLR
11:54 85.8 °F 53.4 °F 29.9 in West 3.6 mph 4.6 mph 33% 0 in CLR
11:59 86.2 °F 53.8 °F 29.9 in WSW 2.9 mph 6.9 mph 33% 0 in CLR
12:04 86.4 °F 53.1 °F 29.9 in SSW 2.9 mph 6.9 mph 32% 0 in CLR
12:09 86.7 °F 52.5 °F 29.9 in WSW 5.9 mph 10.4 mph 31% 0 in CLR
12:14 86.9 °F 52.5 °F 29.9 in SSW 5.9 mph 5.8 mph 31% 0 in CLR
12:19 87.1 °F 52.9 °F 29.9 in SW 5.2 mph 8.1 mph 31% 0 in CLR
12:24 87.1 °F 52.9 °F 29.9 in South 5.2 mph 10.4 mph 31% 0 in CLR
12:29 87.3 °F 52 °F 29.9 in SW 6.4 mph 11.5 mph 30% 0 in CLR
12:34 87.1 °F 52 °F 29.9 in SW 6.4 mph 8.1 mph 30% 0 in CLR
12:39 87.3 °F 52 °F 29.9 in WSW 6.2 mph 6.9 mph 30% 0 in CLR
12:44 87.4 °F 52.2 °F 29.9 in SW 6.2 mph 6.9 mph 30% 0 in CLR
12:49 87.8 °F 52.5 °F 29.9 in SW 4.7 mph 5.8 mph 30% 0 in CLR
12:54 88 °F 51.6 °F 29.9 in West 4.7 mph 2.3 mph 29% 0 in CLR
12:59 88.7 °F 52.3 °F 29.9 in SSE 2.4 mph 5.8 mph 29% 0 in CLR
13:04 88.9 °F 52.5 °F 29.9 in SE 2.4 mph 4.6 mph 29% 0 in CLR
13:09 88.9 °F 51.6 °F 29.9 in NW 4.3 mph 6.9 mph 28% 0 in CLR
13:14 88.9 °F 51.6 °F 29.9 in WSW 4.3 mph 8.1 mph 28% 0 in CLR
13:19 89.4 °F 52 °F 29.9 in WSW 4 mph 4.6 mph 28% 0 in CLR
13:24 89.4 °F 52 °F 29.9 in South 4 mph 9.2 mph 28% 0 in CLR
13:29 89.4 °F 52 °F 29.9 in SW 5.2 mph 10.4 mph 28% 0 in CLR
13:34 89.2 °F 52 °F 29.9 in ESE 5.2 mph 6.9 mph 28% 0 in CLR
13:39 89.2 °F 52 °F 29.9 in SE 5.2 mph 6.9 mph 28% 0 in CLR
13:44 89.4 °F 52 °F 29.9 in SE 5.2 mph 5.8 mph 28% 0 in CLR
13:49 89.4 °F 51.1 °F 29.9 in ESE 4 mph 4.6 mph 27% 0 in CLR
13:54 90 °F 51.4 °F 29.9 in SW 4 mph 5.8 mph 27% 0 in CLR
13:59 90 °F 51.4 °F 29.9 in East 2.9 mph 5.4 mph 27% 0 in CLR
14:04 90.1 °F 51.6 °F 29.9 in WNW 2.9 mph 3.5 mph 27% 0 in CLR
14:09 90.9 °F 52.3 °F 29.9 in WNW 3.6 mph 5.8 mph 27% 0 in CLR
14:14 91.2 °F 52.5 °F 29.9 in West 3.6 mph 5.9 mph 27% 0 in CLR
14:19 91.6 °F 51.8 °F 29.8 in SE 3.1 mph 7.4 mph 26% 0 in CLR
14:24 91.4 °F 51.6 °F 29.8 in WNW 3.1 mph 6.9 mph 26% 0 in CLR
14:29 91.2 °F 51.4 °F 29.8 in SSW 4.3 mph 2.4 mph 26% 0 in CLR
14:34 91.8 °F 54 °F 29.8 in East 4.3 mph 9.2 mph 28% 0 in CLR
14:39 91.9 °F 55 °F 29.8 in ESE 5.4 mph 15.2 mph 29% 0 in CLR
14:44 91.2 °F 54.5 °F 29.8 in SSW 5.4 mph 12.7 mph 29% 0 in CLR
14:49 91.2 °F 55.6 °F 29.8 in SE 9.7 mph 11.4 mph 30% 0 in CLR
14:54 91.4 °F 54.7 °F 29.8 in South 9.7 mph 9.2 mph 29% 0 in CLR
14:59 91.2 °F 54.5 °F 29.8 in SE 8.1 mph 15.9 mph 29% 0 in CLR
15:04 91 °F 55.2 °F 29.8 in SE 8.1 mph 17.3 mph 30% 0 in CLR
15:09 91 °F 54.3 °F 29.8 in ENE 11.2 mph 15 mph 29% 0 in CLR
15:14 91 °F 55.2 °F 29.8 in ESE 11.2 mph 18.4 mph 30% 0 in CLR
15:19 91 °F 55.2 °F 29.8 in East 10.2 mph 12.7 mph 30% 0 in CLR
15:24 91.2 °F 54.5 °F 29.8 in SE 10.2 mph 17.3 mph 29% 0 in CLR
15:29 91.6 °F 54 °F 29.8 in ESE 10 mph 18.4 mph 28% 0 in CLR
15:34 91.6 °F 52.9 °F 29.8 in SSW 10 mph 13.8 mph 27% 0 in CLR
15:39 91.8 °F 53.1 °F 29.8 in SSE 9.2 mph 16.1 mph 27% 0 in CLR
15:44 91.8 °F 53.1 °F 29.8 in East 9.2 mph 16.1 mph 27% 0 in CLR
15:49 91.8 °F 53.1 °F 29.8 in SE 10 mph 17 mph 27% 0 in CLR
15:54 91.9 °F 52.2 °F 29.8 in SE 10 mph 15.2 mph 26% 0 in CLR
15:59 91.6 °F 51.8 °F 29.8 in SE 11.2 mph 19.6 mph 26% 0 in CLR
16:04 91.6 °F 51.8 °F 29.8 in SE 11.2 mph 17.3 mph 26% 0 in CLR
16:09 91.9 °F 51.1 °F 29.8 in South 11.2 mph 13.8 mph 25% 0 in CLR
16:14 92.1 °F 51.3 °F 29.8 in SE 11.2 mph 13.8 mph 25% 0 in CLR
16:19 92.1 °F 51.3 °F 29.8 in ESE 10 mph 13.8 mph 25% 0 in CLR
16:24 91.9 °F 51.1 °F 29.8 in SE 10 mph 15 mph 25% 0 in CLR
16:29 91.6 °F 50.7 °F 29.8 in East 10 mph 17.3 mph 25% 0 in CLR
16:34 91.2 °F 50.5 °F 29.8 in ESE 10 mph 20.1 mph 25% 0 in CLR
16:39 91.2 °F 50.5 °F 29.8 in SE 10 mph 11.5 mph 25% 0 in CLR
16:44 91.6 °F 50.7 °F 29.8 in SE 12.3 mph 16.1 mph 25% 0 in CLR
16:49 91.2 °F 50.5 °F 29.8 in SSE 10.7 mph 18.4 mph 25% 0 in CLR
16:54 91.2 °F 50.5 °F 29.8 in ESE 10.7 mph 15 mph 25% 0 in CLR
16:59 91.2 °F 50.5 °F 29.8 in SE 10 mph 15 mph 25% 0 in CLR
17:04 91.2 °F 50.5 °F 29.8 in ESE 10 mph 15 mph 25% 0 in CLR
17:09 91.8 °F 49.8 °F 29.8 in ESE 9.7 mph 15 mph 24% 0 in CLR
17:14 91.6 °F 49.6 °F 29.8 in ESE 9.7 mph 15 mph 24% 0 in CLR
17:19 91.2 °F 50.5 °F 29.8 in ESE 10 mph 16.1 mph 25% 0 in CLR
17:24 91.4 °F 49.5 °F 29.8 in ESE 10 mph 12.7 mph 24% 0 in CLR
17:29 91.2 °F 49.5 °F 29.8 in SE 9.2 mph 16.1 mph 24% 0 in CLR
17:34 91 °F 49.3 °F 29.8 in ESE 9.2 mph 16.1 mph 24% 0 in CLR
17:39 90.7 °F 47.8 °F 29.8 in ESE 10.7 mph 19.6 mph 23% 0 in CLR
17:44 90.3 °F 47.5 °F 29.8 in ESE 10.7 mph 17.3 mph 23% 0 in CLR
17:49 90.9 °F 47.8 °F 29.8 in ESE 10.2 mph 12.7 mph 23% 0 in CLR
17:54 91 °F 48 °F 29.8 in ESE 10.2 mph 15 mph 23% 0 in CLR
17:59 90.7 °F 48.9 °F 29.8 in East 10.7 mph 17.3 mph 24% 0 in CLR
18:04 90.1 °F 48.6 °F 29.8 in East 10.7 mph 13.8 mph 24% 0 in CLR
18:09 90.5 °F 49.8 °F 29.8 in ESE 11.2 mph 13.8 mph 25% 0 in CLR
18:14 90.3 °F 48.6 °F 29.8 in SE 11.2 mph 12.7 mph 24% 0 in CLR
18:19 90.1 °F 48.6 °F 29.8 in East 11.2 mph 12.7 mph 24% 0 in CLR
18:24 90.3 °F 48.6 °F 29.8 in East 11.2 mph 15 mph 24% 0 in CLR
18:29 90.1 °F 47.3 °F 29.8 in ESE 8.7 mph 16.1 mph 23% 0 in CLR
18:34 90 °F 48.4 °F 29.8 in East 8.7 mph 12.7 mph 24% 0 in CLR
18:39 89.8 °F 48.2 °F 29.8 in East 10.7 mph 11.8 mph 24% 0 in CLR
18:44 90 °F 48.4 °F 29.8 in East 10.7 mph 9.2 mph 24% 0 in CLR
18:49 90 °F 48.4 °F 29.8 in SE 8.1 mph 12.7 mph 24% 0 in CLR
18:54 90 °F 47.1 °F 29.8 in ESE 8.1 mph 15 mph 23% 0 in CLR
18:59 89.6 °F 48 °F 29.8 in ESE 9.2 mph 10.4 mph 24% 0 in CLR
19:04 89.4 °F 47.8 °F 29.8 in SE 9.2 mph 11.5 mph 24% 0 in CLR
19:09 89.4 °F 47.8 °F 29.8 in NE 7.4 mph 8.7 mph 24% 0 in CLR
19:14 89.4 °F 47.8 °F 29.8 in East 7.4 mph 9.2 mph 24% 0 in CLR
19:19 89.2 °F 47.7 °F 29.8 in ESE 7.6 mph 12.7 mph 24% 0 in CLR
19:24 89.1 °F 48.7 °F 29.8 in ESE 7.6 mph 16.1 mph 25% 0 in CLR
19:29 88.9 °F 48.6 °F 29.8 in SE 9.2 mph 13.5 mph 25% 0 in CLR
19:34 88.7 °F 48.4 °F 29.8 in East 9.2 mph 10.4 mph 25% 0 in CLR
19:39 88.5 °F 49.3 °F 29.8 in ESE 8.1 mph 13.8 mph 26% 0 in CLR
19:44 88.3 °F 49.1 °F 29.8 in ESE 8.1 mph 10.7 mph 26% 0 in CLR
19:49 88.5 °F 49.3 °F 29.8 in NE 7.6 mph 11.5 mph 26% 0 in CLR
19:54 88.3 °F 49.1 °F 29.8 in ESE 7.6 mph 9.2 mph 26% 0 in CLR
19:59 88.3 °F 50.2 °F 29.8 in ESE 7.6 mph 10.4 mph 27% 0 in CLR
20:04 88.3 °F 50.2 °F 29.8 in East 7.6 mph 10.4 mph 27% 0 in CLR
20:09 88.2 °F 50 °F 29.8 in ESE 6.4 mph 7.4 mph 27% 0 in CLR
20:14 88.3 °F 50.2 °F 29.8 in ESE 6.4 mph 6.9 mph 27% 0 in CLR
20:19 88.2 °F 50 °F 29.8 in ESE 4.7 mph 6.9 mph 27% 0 in CLR
20:24 88 °F 50.7 °F 29.8 in SE 4.7 mph 9.2 mph 28% 0 in CLR
20:29 87.8 °F 50.5 °F 29.8 in ESE 5.4 mph 6.9 mph 28% 0 in CLR
20:34 87.8 °F 50.5 °F 29.8 in East 5.4 mph 5.8 mph 28% 0 in CLR
20:39 87.6 °F 51.4 °F 29.8 in ENE 3.6 mph 5.8 mph 29% 0 in CLR
20:44 87.6 °F 52.3 °F 29.8 in ESE 3.6 mph 5.8 mph 30% 0 in CLR
20:49 87.4 °F 52.2 °F 29.8 in ENE 4 mph 6.9 mph 30% 0 in CLR
20:54 87.3 °F 52 °F 29.8 in NNE 4 mph 3.5 mph 30% 0 in CLR
20:59 87.3 °F 52.9 °F 29.8 in ENE 2.4 mph 5.2 mph 31% 0 in CLR
21:04 87.1 °F 53.6 °F 29.8 in NE 2.4 mph 5.8 mph 32% 0 in CLR
21:09 86.4 °F 54.7 °F 29.8 in East 3.6 mph 5.8 mph 34% 0 in CLR
21:14 86 °F 55.2 °F 29.8 in North 3.6 mph 3.5 mph 35% 0 in CLR
21:19 85.6 °F 55.6 °F 29.8 in NE 3.6 mph 6.9 mph 36% 0 in CLR
21:24 85.3 °F 55.2 °F 29.8 in NE 3.6 mph 6.4 mph 36% 0 in CLR
21:29 84.9 °F 55.8 °F 29.8 in NE 5.2 mph 5.9 mph 37% 0 in CLR
21:34 84.7 °F 56.3 °F 29.8 in NE 5.2 mph 5.8 mph 38% 0 in CLR
21:39 84.4 °F 53.8 °F 29.8 in NNE 4.3 mph 5.2 mph 35% 0 in CLR
21:44 84 °F 54.1 °F 29.8 in NE 4.3 mph 5.8 mph 36% 0 in CLR
21:49 83.8 °F 54 °F 29.8 in NE 4.3 mph 4.6 mph 36% 0 in CLR
21:54 83.5 °F 54.5 °F 29.8 in NE 4.3 mph 6.9 mph 37% 0 in CLR
21:59 83.1 °F 54.9 °F 29.8 in ENE 4 mph 5.8 mph 38% 0 in CLR
22:04 82.8 °F 55.2 °F 29.8 in NNE 4 mph 4.6 mph 39% 0 in CLR
22:09 82.6 °F 56.5 °F 29.8 in NE 4 mph 9.2 mph 41% 0 in CLR
22:14 81.7 °F 56.5 °F 29.8 in NE 4 mph 8.7 mph 42% 0 in CLR
22:19 80.6 °F 57.9 °F 29.8 in NNE 6.2 mph 10.4 mph 46% 0 in CLR
22:24 79.7 °F 60.1 °F 29.8 in North 6.2 mph 8.1 mph 51% 0 in CLR
22:29 78.8 °F 60.3 °F 29.8 in ENE 6.2 mph 8.5 mph 53% 0 in CLR
22:34 77.9 °F 61.3 °F 29.8 in NE 6.2 mph 9.2 mph 57% 0 in CLR
22:39 77.4 °F 62.4 °F 29.8 in NNE 6.9 mph 11.5 mph 60% 0 in CLR
22:44 77 °F 62.4 °F 29.8 in NNE 6.9 mph 9.2 mph 61% 0 in CLR
22:49 76.6 °F 62.6 °F 29.8 in NE 5.9 mph 8.1 mph 62% 0 in CLR
22:54 76.6 °F 63.1 °F 29.8 in NE 5.9 mph 8.1 mph 63% 0 in CLR
22:59 76.5 °F 63 °F 29.8 in NE 5.2 mph 5.8 mph 63% 0 in CLR
23:04 76.5 °F 63.3 °F 29.8 in NNE 5.2 mph 5.8 mph 64% 0 in CLR
23:09 76.5 °F 63.3 °F 29.8 in NNE 4 mph 8.1 mph 64% 0 in CLR
23:14 76.3 °F 63.7 °F 29.8 in North 4 mph 9.2 mph 65% 0 in CLR
23:19 75.9 °F 63.7 °F 29.8 in NE 4.7 mph 4.3 mph 66% 0 in CLR
23:24 75.7 °F 64 °F 29.8 in NNE 4.7 mph 6.9 mph 67% 0 in CLR
23:29 75.6 °F 63.9 °F 29.8 in NE 4.3 mph 4.6 mph 67% 0 in CLR
23:34 75.6 °F 64.2 °F 29.8 in NE 4.3 mph 4.6 mph 68% 0 in CLR
23:39 75.4 °F 64.6 °F 29.8 in NE 2.9 mph 5.4 mph 69% 0 in CLR
23:44 75.2 °F 64.2 °F 29.8 in NE 2.9 mph 4.6 mph 69% 0 in CLR
23:49 75 °F 64.2 °F 29.8 in North 2.9 mph 4.6 mph 69% 0 in CLR
23:54 75 °F 64.2 °F 29.8 in NE 2.9 mph 4.6 mph 69% 0 in CLR
23:59 74.8 °F 64.4 °F 29.8 in North 2.4 mph 4.7 mph 70% 0 in CLR
Murcia-Puente Tocinos, España
Compliments of Weather Underground - 2.75 mb

La estación de MeteoMurcia.com, publica sus datos en los siguientes proyectos:

Weather Underground PWS IMURCIAP2 Meteoclimatic www.awekas.at

W3Counter
Web Analytics